Weather History for Eureka, NV

Change the Weather History Date:

Friday, April 12, 2013

  Actual Average Record
Temperature  
Mean Temperature 45 °F 42 °F  
Max Temperature 65 °F 58 °F 76 °F (1988)
Min Temperature 24 °F 27 °F 4 °F (1970)
Degree Days  
Heating Degree Days 20 23  
Month to date heating degree days 236 287  
Since 1 July heating degree days 6043 6443  
Cooling Degree Days 0 0  
Month to date cooling degree days 0 0  
Year to date cooling degree days 0 0  
Moisture  
Dew Point 15 °F    
Average Humidity 45    
Maximum Humidity 81    
Minimum Humidity 8    
Precipitation  
Precipitation 0.00 in 0.03 in 0.66 in (1983)
Month to date precipitation 0.27 0.36  
Year to date precipitation 2.34 2.89  
Sea Level Pressure  
Sea Level Pressure 29.88 in    
Wind  
Wind Speed 5 mph (SSW)    
Max Wind Speed 15 mph    
Max Gust Speed 19 mph    
T = Trace of Precipitation, MM = Missing Value Source: NWS Daily Summary

Daily Weather History Graph

Daily Weather History Graph

Search for Another Location

Airport:

Trip Planner

Search our weather history database for the weather conditions in past years. The results will help you decide how hot, cold, wet, or windy it might be!

Date:

Astronomy

Apr. 12, 2013 Rise Set
Actual Time 6:10 AM PDT 7:19 PM PDT
Civil Twilight 5:42 AM PDT 7:47 PM PDT
Nautical Twilight 5:09 AM PDT 8:20 PM PDT
Astronomical Twilight 4:35 AM PDT 8:54 PM PDT
Moon 7:23 AM PDT (4/12) 9:53 PM PDT (4/12)
Length of Visible Light 14h 04m
Length of Day
13h 08m
Waxing Crescent, 6% of the Moon is Illuminated
Apr 12
Waxing Crescent
Apr 18
First Quarter
Apr 25
Full
May 2
Last Quarter
May 9
New

Hourly Weather History & Observations

Time (PDT) Temp. Windchill Dew Point Humidity Pressure Visibility Wind Dir Wind Speed Gust Speed Precip Events Conditions
12:53 AM 36.0 °F 32.1 °F 26.1 °F 67% 29.91 in - South 4.6 mph - N/A   Unknown
1:53 AM 30.9 °F 26.2 °F 24.1 °F 76% 29.92 in - South 4.6 mph - N/A   Unknown
2:53 AM 28.9 °F 22.8 °F 21.9 °F 75% 29.92 in - South 5.8 mph - N/A   Unknown
3:53 AM 27.0 °F 19.5 °F 21.0 °F 78% 29.92 in - SSW 6.9 mph - N/A   Unknown
4:53 AM 26.1 °F - 19.9 °F 78% 29.92 in - Calm Calm - N/A   Unknown
5:53 AM 27.0 °F 23.0 °F 19.9 °F 75% 29.94 in - South 3.5 mph - N/A   Unknown
6:53 AM 28.9 °F 22.8 °F 19.9 °F 69% 29.97 in - SSW 5.8 mph - N/A   Unknown
7:53 AM 37.9 °F - 21.9 °F 53% 29.97 in - Calm Calm - N/A   Unknown
8:53 AM 45.0 °F - 21.0 °F 39% 29.97 in - Calm Calm - N/A   Unknown
9:53 AM 50.0 °F - 19.0 °F 29% 29.96 in - Variable 3.5 mph - N/A   Unknown
10:53 AM 52.0 °F - 17.1 °F 25% 29.96 in - NE 5.8 mph - N/A   Unknown
11:53 AM 54.0 °F - 12.9 °F 20% 29.94 in - Variable 3.5 mph - N/A   Unknown
12:53 PM 55.0 °F - 8.1 °F 15% 29.90 in - Variable 3.5 mph - N/A   Unknown
1:53 PM 59.0 °F - -0.9 °F 9% 29.88 in - Variable 3.5 mph - N/A   Unknown
2:53 PM 61.0 °F - 3.0 °F 10% 29.85 in - West 5.8 mph - N/A   Unknown
3:53 PM 63.0 °F - 5.0 °F 10% 29.82 in - Variable 4.6 mph - N/A   Unknown
4:53 PM 63.0 °F - 1.9 °F 9% 29.81 in - West 9.2 mph - N/A   Unknown
5:53 PM 62.1 °F - 3.0 °F 9% 29.79 in - SSW 5.8 mph - N/A   Unknown
6:53 PM 60.1 °F - 9.0 °F 13% 29.78 in - WSW 4.6 mph - N/A   Unknown
7:53 PM 48.9 °F - 15.1 °F 26% 29.79 in - NW 8.1 mph - N/A   Unknown
8:53 PM 46.0 °F 43.9 °F 17.1 °F 31% 29.81 in - SSE 4.6 mph - N/A   Unknown
9:53 PM 42.1 °F 37.7 °F 19.9 °F 41% 29.81 in - SE 6.9 mph - N/A   Unknown
10:53 PM 44.1 °F 40.1 °F 19.9 °F 38% 29.80 in - South 6.9 mph - N/A   Unknown
11:53 PM 39.0 °F 34.8 °F 21.0 °F 49% 29.80 in - South 5.8 mph - N/A   Unknown